Zurück zum Katalog

DELTA 1 DEB

AktivLEO
NORAD 10866·DEBRIS·🇺🇸 United States

Gestartet Jul 29, 1976 von Vandenberg Space Force Base

Loading…

Nächste Überflüge (nächste 24 Stunden)

TLE

AktuellSource: Space-Track

Epoche: Sep 14, 2026, 08:35 UTC

1 10866U 76077CU  26257.35821367 -.00000012  00000-0  29684-3 0  9991
2 10866 102.7394 227.0264 0148689 264.9305 258.9131 12.30646721250926

Verfolge DELTA 1 DEB in Echtzeit mit AllMySat

Download on the App Store